星链-32362 (STARLINK-32362)

导读

STARLINK-32362是美国SpaceX公司于2024年11月7日发射的星链低轨互联网通信卫星,属于星链卫星星座的组网卫星,运行在近地轨道。星链项目旨在为全球提供高速低延迟宽带互联网接入,该卫星大概率为V2 Mini版本,支持手机直连功能,配备激光星间链路,助力星链实现全球覆盖,提升网络性能,不过星链大规模扩张也引发太空垃圾、轨道安全等争议。

基本信息
目录编号:
61845
目录名称:
STARLINK-32362
国际标识:
2024-202A
轨道中心:
EARTH
卫星名称:
星链-32362
卫星全名:
星链-32362 (STARLINK-32362)
卫星状态:
在轨 (已飞行587 天)
发射日期:
2024-11-07 UTC
国别 :
美国 (US)
星等 :
--
轨道信息
数据来源 国际轨道数据
星历时间: 2026-06-16T15:59:06+0800
1天前
查看轨道信息
半长轴: 6861.195km
偏心率: 0.0002673
轨道倾角: 43.020°
近地点辐角 278.134°
升交点赤经 29.678°
平近点角 81.921°
近地点: 481.224km
远地点: 484.892km
周期: 94.267分钟
每日圈数: 15.275771
详细信息
固有亮度:
5
最大亮度:
2.5
卫星平台:
Starlink V1.0
覆盖范围:
全球
运营商:
太空探索技术公司
运营商所在国:
美国
制造商(研发单位):
太空探索技术公司
制造商所在国:
美国
使用方式:
暂无
卫星简介
Starlink 计划是 SpaceX 推出的全球卫星互联网项目,通过发射低轨道卫星,为全球尤其是偏远地区提供高速、低延迟的互联网服务。自 2019 年起,Starlink 已部署数千颗卫星,旨在缩小全球数字鸿沟,推动互联网普及。该项目还为军事、航空等行业提供通信支持,带来广泛经济效益。
2D轨道图
3D轨道图
轨道高度分析图
轨道倾角分析图
轨道综合分析图
查看轨道综合分析图